Date String (YYYY-MM-DD hh:mm:ss) UTC,Instrument flags,Ambient pressure (hPa),Sample flow (lpm),Bypass flow (lpm),Sample temperature (°C),Ambient temperature (°C),ASC tube jacket temperature (°C),LED temperature (°C),Box temperature (°C),Sample RH (%),Span deviation,Mass concentration (μg/m³),Mass concentration (μg/m³),Mass concentration (μg/m³)
DateTimeUTC,F1_M11,P_M11,Q1_M11,Q2_M11,T1_M11,T2_M11,T3_M11,T4_M11,T5_M11,U1_M11,ZSPAN_M11,X0_M11,X2_M11,X1_M11
2022-01-25 02:00:00,,0822.3,5.00,0.00,22.2,21.6,00.0,31.1,23.9,09.3,0000.0,0010.86,0002.86,0001.82
2022-01-25 02:01:00,,0822.3,5.01,0.00,22.2,21.6,00.0,31.1,23.9,09.3,0000.0,0011.20,0002.85,0001.82
2022-01-25 02:02:00,,0822.3,5.00,0.00,22.2,21.6,00.0,31.1,24.0,09.3,0000.0,0011.10,0002.86,0001.81
2022-01-25 02:03:00,,0822.3,5.00,0.00,22.2,21.5,00.0,31.1,24.0,09.3,0000.0,0010.79,0002.87,0001.81
2022-01-25 02:04:00,,0822.3,5.01,0.00,22.2,21.5,00.0,31.1,24.0,09.3,0000.0,0010.54,0002.85,0001.81
2022-01-25 02:05:00,,0822.4,5.00,0.00,22.2,21.5,00.0,31.1,23.9,09.3,0000.0,0009.47,0002.77,0001.80
2022-01-25 02:06:00,,0822.3,5.00,0.00,22.2,21.5,00.0,31.1,23.9,09.3,0000.0,0009.00,0002.75,0001.80
2022-01-25 02:07:00,,0822.3,5.00,0.00,22.2,21.5,00.0,31.1,24.0,09.3,0000.0,0008.50,0002.73,0001.79
2022-01-25 02:08:00,,0822.3,5.00,0.00,22.2,21.5,00.0,31.1,23.9,09.4,0000.0,0008.43,0002.80,0001.80
2022-01-25 02:09:00,,0822.3,5.00,0.00,22.2,21.5,00.0,31.1,23.9,09.4,0000.0,0008.24,0002.78,0001.82
2022-01-25 02:10:00,,0822.3,5.01,0.00,22.1,21.5,00.0,31.1,23.9,09.4,0000.0,0007.94,0002.74,0001.83
2022-01-25 02:11:00,,0822.3,5.00,0.00,22.1,21.5,00.0,31.1,23.9,09.4,0000.0,0007.72,0002.80,0001.85
2022-01-25 02:12:00,,0822.3,5.00,0.00,22.1,21.5,00.0,31.1,23.9,09.4,0000.0,0008.07,0002.83,0001.85
2022-01-25 02:13:00,,0822.4,4.99,0.00,22.1,21.5,00.0,31.1,23.9,09.3,0000.0,0008.51,0002.89,0001.88
2022-01-25 02:14:00,,0822.4,5.00,0.00,22.1,21.5,00.0,31.1,23.9,09.3,0000.0,0008.32,0002.93,0001.89
2022-01-25 02:15:00,,0822.4,5.00,0.00,22.1,21.5,00.0,31.1,23.9,09.3,0000.0,0008.69,0002.91,0001.89
2022-01-25 02:16:00,,0822.4,5.00,0.00,22.1,21.5,00.0,31.1,23.9,09.3,0000.0,0008.59,0002.93,0001.91
2022-01-25 02:17:00,,0822.4,5.00,0.00,22.1,21.5,00.0,31.1,23.9,09.3,0000.0,0008.69,0002.97,0001.93
2022-01-25 02:18:00,,0822.4,5.00,0.00,22.1,21.5,00.0,31.1,23.9,09.3,0000.0,0008.72,0003.01,0001.94
2022-01-25 02:19:00,,0822.4,5.00,0.00,22.1,21.5,00.0,31.1,23.9,09.2,0000.0,0008.62,0002.95,0001.93
2022-01-25 02:20:00,,0822.5,4.99,0.00,22.1,21.5,00.0,31.1,23.9,09.2,0000.0,0008.87,0003.03,0001.91
2022-01-25 02:21:00,,0822.5,5.00,0.00,22.1,21.5,00.0,31.1,23.9,09.2,0000.0,0009.71,0003.02,0001.90
2022-01-25 02:22:00,,0822.4,5.00,0.00,22.1,21.5,00.0,31.1,23.9,09.2,0000.0,0009.84,0002.96,0001.89
2022-01-25 02:23:00,,0822.4,4.99,0.00,22.1,21.4,00.0,31.1,23.8,09.2,0000.0,0009.38,0002.91,0001.87
2022-01-25 02:24:00,,0822.4,5.00,0.00,22.1,21.4,00.0,31.1,23.8,09.3,0000.0,0008.67,0002.87,0001.87
2022-01-25 02:25:00,,0822.5,5.00,0.00,22.1,21.4,00.0,31.1,23.8,09.3,0000.0,0008.45,0002.82,0001.87
2022-01-25 02:26:00,,0822.5,5.01,0.00,22.1,21.4,00.0,31.1,23.9,09.4,0000.0,0008.01,0002.82,0001.87
2022-01-25 02:27:00,,0822.5,4.99,0.00,22.1,21.4,00.0,31.1,23.8,09.3,0000.0,0008.00,0002.83,0001.89
2022-01-25 02:28:00,,0822.5,5.00,0.00,22.1,21.4,00.0,31.1,23.9,09.4,0000.0,0007.96,0002.82,0001.89
2022-01-25 02:29:00,,0822.5,5.00,0.00,22.1,21.4,00.0,31.1,23.9,09.3,0000.0,0007.88,0002.79,0001.90
2022-01-25 02:30:00,,0822.5,4.99,0.00,22.1,21.5,00.0,31.1,23.9,09.3,0000.0,0007.78,0002.77,0001.91
2022-01-25 02:31:00,,0822.5,5.00,0.00,22.1,21.5,00.0,31.1,23.9,09.3,0000.0,0007.51,0002.70,0001.92
2022-01-25 02:32:00,,0822.6,5.01,0.00,22.1,21.5,00.0,31.1,23.9,09.3,0000.0,0006.62,0002.71,0001.91
2022-01-25 02:33:00,,0822.6,5.00,0.00,22.1,21.5,00.0,31.1,23.9,09.3,0000.0,0005.81,0002.73,0001.91
2022-01-25 02:34:00,,0822.6,5.00,0.00,22.1,21.5,00.0,31.1,23.9,09.2,0000.0,0004.97,0002.73,0001.91
2022-01-25 02:35:00,,0822.6,4.99,0.00,22.1,21.5,00.0,31.1,23.9,09.3,0000.0,0004.95,0002.74,0001.90
2022-01-25 02:36:00,,0822.5,5.00,0.00,22.1,21.5,00.0,31.1,23.9,09.3,0000.0,0005.84,0002.81,0001.90
2022-01-25 02:37:00,,0822.6,5.00,0.00,22.1,21.5,00.0,31.1,23.9,09.2,0000.0,0006.59,0002.85,0001.89
2022-01-25 02:38:00,,0822.6,5.01,0.00,22.1,21.5,00.0,31.1,23.9,09.3,0000.0,0006.64,0002.82,0001.87
2022-01-25 02:39:00,,0822.5,5.00,0.00,22.1,21.5,00.0,31.1,23.9,09.4,0000.0,0006.52,0002.81,0001.85
2022-01-25 02:40:00,,0822.5,4.99,0.00,22.2,21.8,00.0,31.1,24.0,09.4,0000.0,0006.52,0002.81,0001.83
2022-01-25 02:41:00,,0822.5,5.00,0.00,22.3,22.5,00.0,31.2,24.3,09.4,0000.0,0006.76,0002.79,0001.83
2022-01-25 02:42:00,,0822.5,5.00,0.00,22.4,23.1,00.0,31.2,24.5,09.2,0000.0,0007.29,0002.74,0001.82
2022-01-25 02:43:00,,0822.6,5.00,0.00,22.5,23.0,00.0,31.2,24.5,09.2,0000.0,0007.24,0002.68,0001.81
2022-01-25 02:44:00,,0822.6,5.00,0.00,22.5,22.8,00.0,31.3,24.5,09.2,0000.0,0007.23,0002.70,0001.81
2022-01-25 02:45:00,,0822.6,5.00,0.00,22.5,22.6,00.0,31.3,24.4,09.2,0000.0,0007.70,0002.70,0001.81
2022-01-25 02:46:00,,0822.5,5.00,0.00,22.5,22.5,00.0,31.3,24.4,09.0,0000.0,0007.68,0002.67,0001.81
2022-01-25 02:47:00,,0822.6,4.99,0.00,22.5,22.4,00.0,31.3,24.4,09.0,0000.0,0007.72,0002.58,0001.80
2022-01-25 02:48:00,,0822.6,5.01,0.00,22.5,22.3,00.0,31.3,24.4,09.0,0000.0,0008.00,0002.59,0001.80
2022-01-25 02:49:00,,0822.6,4.99,0.00,22.5,22.2,00.0,31.4,24.4,09.0,0000.0,0008.47,0002.63,0001.81
2022-01-25 02:50:00,,0822.6,4.99,0.00,22.5,22.2,00.0,31.4,24.4,09.1,0000.0,0008.98,0002.64,0001.80
2022-01-25 02:51:00,,0822.6,5.01,0.00,22.5,22.1,00.0,31.4,24.4,09.2,0000.0,0009.07,0002.62,0001.81
2022-01-25 02:52:00,,0822.6,5.00,0.00,22.5,22.1,00.0,31.4,24.3,09.1,0000.0,0009.66,0002.63,0001.80
2022-01-25 02:53:00,,0822.6,5.01,0.00,22.5,22.0,00.0,31.4,24.3,09.2,0000.0,0009.70,0002.68,0001.81
2022-01-25 02:54:00,,0822.7,5.00,0.00,22.5,22.0,00.0,31.4,24.3,09.4,0000.0,0009.94,0002.73,0001.83
2022-01-25 02:55:00,,0822.7,5.00,0.00,22.5,22.0,00.0,31.4,24.3,09.6,0000.0,0011.05,0002.71,0001.85
2022-01-25 02:56:00,,0822.7,5.00,0.00,22.5,21.9,00.0,31.4,24.3,09.6,0000.0,0010.97,0002.81,0001.88
2022-01-25 02:57:00,,0822.7,5.02,0.00,22.5,21.9,00.0,31.4,24.3,09.7,0000.0,0012.38,0002.93,0001.92
2022-01-25 02:58:00,,0822.7,5.00,0.00,22.5,21.9,00.0,31.4,24.3,09.8,0000.0,0013.05,0003.10,0001.98
2022-01-25 02:59:00,,0822.7,5.00,0.00,22.5,21.9,00.0,31.4,24.2,09.9,0000.0,0012.66,0003.15,0002.04
